This demonstration page uses our WeatherBlox Daily Observations layout. Learn more.

Left ArrowRight Arrow

36.19886, -115.1175

Hourly Observations for October 27, 2021

Temp ( °F °C ) Dew Point ( °F °C ) Humidity (%) Winds ( mph kmh ) Pressure ( in mb ) Visibility ( mi km ) Precip ( " mm )
12:53 am 00:53 Clear 58 14.4 32 undefined 38 38 NW 10 17 30.16 1021 10 16 N/A
1:53 am 01:53 Clear 56 13.3 33 0.6 42 42 NNW 8 13 30.17 1022 10 16 N/A
2:53 am 02:53 Clear 53 11.7 33 0.6 47 47 WNW 5 7 30.18 1022 10 16 N/A
3:53 am 03:53 Clear 53 11.7 32 undefined 45 45 N N/A 30.19 1022 10 16 N/A
4:53 am 04:53 Clear 52 11.1 33 0.6 49 49 VRB 3 6 30.20 1023 10 16 N/A
5:53 am 05:53 Clear 52 11.1 32 undefined 47 47 ENE 3 6 30.22 1023 10 16 N/A
6:53 am 06:53 Clear 51 10.6 32 undefined 48 48 W 3 6 30.24 1024 10 16 N/A
7:53 am 07:53 Sunny 54 12.2 33 0.6 45 45 E 3 6 30.28 1025 10 16 N/A
8:53 am 08:53 Sunny 59 15 32 undefined 36 36 SSE 5 7 30.31 1026 10 16 N/A
9:53 am 09:53 Sunny 63 17.2 32 undefined 31 31 S 6 9 30.29 1026 10 16 N/A
10:53 am 10:53 Sunny 66 18.9 32 undefined 28 28 SE 6 9 30.28 1026 10 16 N/A
11:53 am 11:53 Sunny 68 20 32 undefined 26 26 SE 8 13 30.27 1025 10 16 N/A
12:53 pm 12:53 Sunny 69 20.6 33 0.6 26 26 VRB 3 6 30.23 1024 10 16 N/A
1:53 pm 13:53 Sunny 72 22.2 33 0.6 24 24 N N/A 30.21 1023 10 16 N/A
2:53 pm 14:53 Sunny 73 22.8 33 0.6 23 23 VRB 3 6 30.19 1022 10 16 N/A
3:53 pm 15:53 Sunny 75 23.9 33 0.6 22 22 E 6 9 30.18 1022 10 16 N/A
4:53 pm 16:53 Sunny 74 23.3 34 1.1 23 23 S 3 6 30.17 1022 10 16 N/A
5:53 pm 17:53 Clear 73 22.8 35 1.7 25 25 N N/A 30.18 1022 10 16 N/A
6:53 pm 18:53 Clear 72 22.2 35 1.7 26 26 N N/A 30.19 1022 10 16 N/A
7:53 pm 19:53 Clear 67 19.4 36 2.2 32 32 NW 5 7 30.20 1023 10 16 N/A
8:53 pm 20:53 Clear 65 18.3 37 2.8 36 36 W 6 9 30.20 1023 10 16 N/A
9:53 pm 21:53 Clear 63 17.2 37 2.8 38 38 WNW 7 11 30.21 1023 10 16 N/A
10:53 pm 22:53 Clear 62 16.7 37 2.8 40 40 NNW 6 9 30.21 1023 10 16 N/A
11:53 pm 23:53 Clear 63 17.2 37 2.8 38 38 N N/A 30.22 1023 10 16 N/A

Powered by AerisWeather